Location: Waltman Observatory
(32.5145°N, 90.4450°W)
Time: 08:27:33
(UTC-05:00)

Amateur Radio Satellites - All Passes

Search period start: 16 September 2014 07:57
Search period end: 17 September 2014 07:57
Location: Waltman Observatory, 32.5145°N, 90.4450°W

Satellite Date Start Highest point End Downlink Frequencies (MHz)
Time Altitude Azimuth
SO-67 16 Sep 08:14:12 08:17:38 69° 283° (WNW) 08:21:03 435.3500 MHz FM
KITSAT 1 16 Sep 08:14:26 08:17:29 13° 260° (W) 08:20:32 435.175 FM
JAS-2 16 Sep 08:28:11 08:31:50 17° 293° (WNW) 08:35:43 435.800 - 435.900 CW/SSB, 435.910 FM
HO-68 16 Sep 08:46:47 08:51:26 18° 94° (E) 08:56:04 435.675 MHz FM
SO-50 16 Sep 08:47:39 08:52:28 68° 61° (ENE) 08:57:19 436.795 FM
MaSat-1 16 Sep 08:50:30 08:55:10 44° 107° (ESE) 08:59:57 437.345 MHz
RS-15 16 Sep 09:11:15 09:12:40 10° 342° (NNW) 09:14:05 29.354 - 29.394 USB, Beacon 29.352 USB
Oscar 11 16 Sep 10:09:30 10:13:20 30° 97° (E) 10:17:07 145.825 FM, Beacon 2401.500 USB
UKube-1 16 Sep 10:22:00 10:26:19 62° 101° (ESE) 10:30:37 145.840 MHz, 145.915 MHz
ISS 16 Sep 10:22:29 10:24:25 15° 32° (NNE) 10:26:22 145.800 FM
MaSat-1 16 Sep 10:28:32 10:32:09 20° 302° (WNW) 10:35:47 437.345 MHz
SO-50 16 Sep 10:31:34 10:32:27 10° 254° (WSW) 10:33:19 436.795 FM
HO-68 16 Sep 10:32:26 10:39:32 67° 288° (WNW) 10:46:37 435.675 MHz FM
UOSAT-12 16 Sep 10:46:28 10:51:12 88° 62° (ENE) 10:55:49 437.025 FM, 437.400 FM
FUNcube-1 16 Sep 11:24:46 11:29:25 87° 283° (WNW) 11:33:59 145.950 - 145.970 MHz USB
RS-15 16 Sep 11:29:11 11:32:55 12° 23° (NNE) 11:36:42 29.354 - 29.394 USB, Beacon 29.352 USB
Oscar 11 16 Sep 11:46:16 11:49:15 18° 291° (WNW) 11:52:13 145.825 FM, Beacon 2401.500 USB
ISS 16 Sep 11:58:07 12:01:22 52° 227° (SW) 12:04:35 145.800 FM
Sapphire 16 Sep 12:07:36 12:11:40 22° 106° (ESE) 12:15:45 437.095 MHz 1200 baud AX-25 AFSK
PCSat 16 Sep 12:33:48 12:38:54 44° 110° (ESE) 12:44:02 145.825 MHz
Oscar 16 16 Sep 12:49:40 12:53:19 20° 67° (ENE) 12:56:58 437.025 USB, Beacon 2401.1428
ITAMSAT 1 16 Sep 13:25:56 13:29:17 18° 66° (ENE) 13:32:39 435.822 SSB
Uribyol 2 16 Sep 13:30:34 13:34:22 21° 68° (ENE) 13:38:10 436.500 FM
AO-Echo 16 Sep 13:31:42 13:35:17 21° 69° (ENE) 13:38:49 ?
RS-15 16 Sep 13:38:54 13:49:23 44° 53° (NE) 14:00:11 29.354 - 29.394 USB, Beacon 29.352 USB
Oscar 19 16 Sep 13:48:53 13:54:03 78° 76° (ENE) 13:59:16 437.125 CW, 437.150 USB
Sapphire 16 Sep 13:49:45 13:54:46 39° 300° (WNW) 13:59:50 437.095 MHz 1200 baud AX-25 AFSK
JAS-1B 16 Sep 13:57:29 14:06:21 57° 72° (ENE) 14:13:53 435.800 - 435.900 CW/SSB
AO-27 16 Sep 13:58:20 14:03:05 39° 72° (ENE) 14:07:52 436.795 MHz FM
PCSat 16 Sep 14:18:26 14:22:29 21° 305° (NW) 14:26:33 145.825 MHz
Oscar 16 16 Sep 14:27:28 14:32:19 40° 261° (W) 14:37:12 437.025 USB, Beacon 2401.1428
Gurwin Techsat 1B 16 Sep 14:30:58 14:35:46 36° 71° (ENE) 14:40:35 435.225 FM
AO-7 16 Sep 14:45:55 14:50:34 16° 56° (NE) 14:55:11 29.400 - 29.500 MHz
ITAMSAT 1 16 Sep 15:03:28 15:08:23 45° 260° (W) 15:13:19 435.822 SSB
Oscar 10/S400 16 Sep 15:03:43 15:24:21 36° 150° (SSE) 15:42:40 145.825 - 145.975 CW/USB, Beacon 145.810 USB
Uribyol 2 16 Sep 15:08:48 15:13:32 37° 261° (W) 15:18:18 436.500 FM
AO-Echo 16 Sep 15:09:36 15:13:50 31° 262° (W) 15:18:02 ?
TMSAT-1 16 Sep 15:09:50 15:15:03 65° 75° (ENE) 15:20:17 436.925 FM
AO-27 16 Sep 15:39:00 15:42:40 20° 265° (W) 15:46:22 436.795 MHz FM
JAS-1B 16 Sep 15:49:24 15:56:51 28° 263° (W) 16:03:30 435.800 - 435.900 CW/SSB
RS-15 16 Sep 15:51:12 16:01:45 49° 251° (WSW) 16:12:46 29.354 - 29.394 USB, Beacon 29.352 USB
Gurwin Techsat 1B 16 Sep 16:11:43 16:15:45 22° 265° (W) 16:19:48 435.225 FM
Uosat F 16 Sep 16:15:45 16:20:31 47° 73° (ENE) 16:25:17 435.120 FM
AO-7 16 Sep 16:33:51 16:42:11 88° 72° (ENE) 16:50:32 29.400 - 29.500 MHz
JAS-2 16 Sep 16:53:03 16:55:19 13° 65° (ENE) 16:57:33 435.800 - 435.900 CW/SSB, 435.910 FM
TMSAT-1 16 Sep 16:53:31 16:55:19 12° 268° (W) 16:57:07 436.925 FM
OPAL 16 Sep 17:09:46 17:14:23 33° 100° (E) 17:18:55 ?
Uosat F 16 Sep 17:56:38 17:59:28 15° 266° (W) 18:02:19 435.120 FM
Hamsat 16 Sep 18:01:51 18:06:08 59° 76° (ENE) 18:10:26 145.90 MHz
Saudisat 1A 16 Sep 18:07:19 18:11:42 84° 298° (WNW) 18:16:07 436.775 MHz
AO-7 16 Sep 18:31:32 18:35:42 15° 267° (W) 18:39:53 29.400 - 29.500 MHz
JAS-2 16 Sep 18:34:33 18:39:58 59° 259° (WSW) 18:45:06 435.800 - 435.900 CW/SSB, 435.910 FM
SO-67 16 Sep 18:43:38 18:45:57 17° 72° (ENE) 18:48:17 435.3500 MHz FM
KITSAT 1 16 Sep 18:45:23 18:51:07 22° 103° (ESE) 18:56:51 435.175 FM
OPAL 16 Sep 18:48:57 18:53:02 24° 294° (WNW) 18:57:05 ?
MaSat-1 16 Sep 18:49:06 18:52:19 27° 60° (ENE) 18:55:08 437.345 MHz
STRAND 1 16 Sep 19:23:37 19:28:30 43° 100° (E) 19:33:21 ?
SO-67 16 Sep 20:16:22 20:18:49 18° 264° (W) 20:21:18 435.3500 MHz FM
MaSat-1 16 Sep 20:27:35 20:28:35 11° 261° (W) 20:29:33 437.345 MHz
KITSAT 1 16 Sep 20:37:45 20:45:46 66° 299° (WNW) 20:53:50 435.175 FM
HO-68 16 Sep 20:55:30 21:02:27 59° 71° (ENE) 21:09:26 435.675 MHz FM
Oscar 11 16 Sep 21:01:33 21:03:52 14° 68° (ENE) 21:06:12 145.825 FM, Beacon 2401.500 USB
STRAND 1 16 Sep 21:03:53 21:07:18 18° 293° (WNW) 21:10:44 ?
UKube-1 16 Sep 21:13:24 21:17:09 29° 71° (ENE) 21:20:54 145.840 MHz, 145.915 MHz
PCSat 16 Sep 21:27:41 21:30:46 15° 51° (NE) 21:33:50 145.825 MHz
FUNcube-1 16 Sep 22:16:42 22:20:45 40° 73° (ENE) 22:24:55 145.950 - 145.970 MHz USB
Oscar 11 16 Sep 22:35:35 22:39:40 40° 261° (W) 22:43:47 145.825 FM, Beacon 2401.500 USB
KITSAT 1 16 Sep 22:39:03 22:42:45 14° 319° (NW) 22:46:29 435.175 FM
Sapphire 16 Sep 22:41:51 22:47:15 63° 63° (ENE) 22:52:35 437.095 MHz 1200 baud AX-25 AFSK
HO-68 16 Sep 22:45:22 22:50:27 21° 265° (W) 22:55:34 435.675 MHz FM
UKube-1 16 Sep 22:50:21 22:53:19 18° 264° (W) 22:56:19 145.840 MHz, 145.915 MHz
SO-50 16 Sep 22:58:17 23:02:40 65° 116° (ESE) 23:07:10 436.795 FM
PCSat 16 Sep 23:09:15 23:14:38 67° 248° (WSW) 23:19:59 145.825 MHz
FUNcube-1 16 Sep 23:55:14 23:57:18 13° 267° (W) 23:59:24 145.950 - 145.970 MHz USB
Sapphire 17 Sep 00:27:35 00:30:03 13° 257° (WSW) 00:32:29 437.095 MHz 1200 baud AX-25 AFSK
SO-50 17 Sep 00:41:49 00:43:40 12° 312° (NW) 00:45:33 436.795 FM
UOSAT-12 17 Sep 00:53:01 00:57:35 79° 117° (ESE) 01:02:16 437.025 FM, 437.400 FM
Uribyol 2 17 Sep 01:50:52 01:51:02 10° 92° (E) 01:51:12 436.500 FM
JAS-1B 17 Sep 01:51:43 01:53:50 12° 92° (E) 01:55:57 435.800 - 435.900 CW/SSB
Oscar 19 17 Sep 02:05:30 02:10:21 40° 99° (E) 02:15:08 437.125 CW, 437.150 USB
AO-27 17 Sep 02:16:40 02:20:30 21° 95° (E) 02:24:19 436.795 MHz FM
PANSAT 17 Sep 02:30:27 02:33:26 22° 162° (SSE) 02:36:25 not established
UOSAT-12 17 Sep 02:36:57 02:38:18 11° 313° (NW) 02:39:39 437.025 FM, 437.400 FM
Saudisat 1A 17 Sep 02:39:02 02:42:27 21° 53° (NE) 02:45:50 436.775 MHz
Oscar 16 17 Sep 02:43:32 02:48:43 79° 284° (WNW) 02:53:51 437.025 USB, Beacon 2401.1428
Gurwin Techsat 1B 17 Sep 02:52:24 02:56:22 21° 95° (E) 03:00:19 435.225 FM
ISS 17 Sep 03:00:36 03:03:46 42° 132° (SE) 03:06:56 145.800 FM
AO-Echo 17 Sep 03:20:21 03:25:10 70° 284° (WNW) 03:30:07 ?
ITAMSAT 1 17 Sep 03:20:41 03:25:55 86° 284° (WNW) 03:31:08 435.822 SSB
Uribyol 2 17 Sep 03:25:42 03:30:54 72° 285° (WNW) 03:36:06 436.500 FM
TMSAT-1 17 Sep 03:30:37 03:35:32 37° 98° (E) 03:40:24 436.925 FM
JAS-1B 17 Sep 03:39:21 03:44:59 60° 287° (WNW) 03:50:36 435.800 - 435.900 CW/SSB
Oscar 19 17 Sep 03:45:42 03:49:20 20° 293° (WNW) 03:52:58 437.125 CW, 437.150 USB
AO-27 17 Sep 03:55:16 04:00:03 38° 289° (WNW) 04:04:49 436.795 MHz FM
RS-15 17 Sep 03:57:05 04:07:13 42° 108° (ESE) 04:17:06 29.354 - 29.394 USB, Beacon 29.352 USB
Oscar 10/S400 17 Sep 04:09:34 05:19:16 23° 253° (WSW) 07:53:58 145.825 - 145.975 CW/USB, Beacon 145.810 USB
PANSAT 17 Sep 04:09:36 04:13:14 42° 174° (S) 04:16:53 not established
Saudisat 1A 17 Sep 04:18:08 04:22:01 31° 248° (WSW) 04:25:52 436.775 MHz
OPAL 17 Sep 04:20:09 04:24:48 36° 69° (ENE) 04:29:31 ?
Uosat F 17 Sep 04:28:49 04:32:35 21° 96° (E) 04:36:21 435.120 FM
Gurwin Techsat 1B 17 Sep 04:31:31 04:36:22 38° 289° (WNW) 04:41:13 435.225 FM
KITSAT 1 17 Sep 04:36:43 04:43:32 29° 52° (NE) 04:50:17 435.175 FM
ISS 17 Sep 04:38:25 04:40:37 16° 326° (NNW) 04:42:50 145.800 FM
AO-7 17 Sep 04:41:05 04:48:44 40° 100° (E) 04:56:19 29.400 - 29.500 MHz
TMSAT-1 17 Sep 05:11:11 05:15:09 22° 292° (WNW) 05:19:07 436.925 FM
JAS-2 17 Sep 05:47:25 05:52:07 22° 97° (E) 05:57:12 435.800 - 435.900 CW/SSB, 435.910 FM
PANSAT 17 Sep 05:49:33 05:53:10 41° 187° (S) 05:56:48 not established
Hamsat 17 Sep 05:53:47 05:56:10 15° 94° (E) 05:58:32 145.90 MHz
OPAL 17 Sep 05:59:45 06:03:41 22° 263° (W) 06:07:40 ?
Uosat F 17 Sep 06:06:52 06:11:22 34° 289° (WNW) 06:15:52 435.120 FM
RS-15 17 Sep 06:08:43 06:19:16 48° 306° (NW) 06:29:43 29.354 - 29.394 USB, Beacon 29.352 USB
KITSAT 1 17 Sep 06:31:25 06:39:15 57° 249° (WSW) 06:47:04 435.175 FM
AO-7 17 Sep 06:33:54 06:41:20 39° 295° (WNW) 06:48:48 29.400 - 29.500 MHz
STRAND 1 17 Sep 06:35:13 06:39:54 39° 72° (ENE) 06:44:36 ?
Hamsat 17 Sep 07:28:21 07:32:12 34° 287° (WNW) 07:36:00 145.90 MHz
PANSAT 17 Sep 07:30:04 07:32:58 20° 199° (SSW) 07:35:52 not established
JAS-2 17 Sep 07:31:25 07:37:11 49° 287° (WNW) 07:43:41 435.800 - 435.900 CW/SSB, 435.910 FM
SO-50 17 Sep 07:34:56 07:38:26 20° 52° (NE) 07:41:56 436.795 FM
SO-67 17 Sep 07:43:27 07:46:41 37° 98° (E) 07:49:54 435.3500 MHz FM
